Tracking 29088 objects as of 13-Jul-2024
HD Live streaming from Space Station
objects crossing your sky now

DIDO 2

Track DIDO 2 now!
10-day predictions
DIDO 2 is classified as:


NORAD ID: 42000
Int'l Code: 2017-008BE
Perigee: 185.6 km
Apogee: 202.5 km
Inclination: 97.1 °
Period: 88.2 minutes
Semi major axis: 6565 km
RCS: Unknown
Launch date: February 15, 2017
Source: Israel (ISRA)
Launch site: SRIHARIKOTA (SRI)

Uplink (MHz):
Downlink (MHz): 400.300
Beacon (MHz):
Mode: 1200bps BPSK
Call sign: DIDO2
Status: Active

Your satellite tracking list
Your tracking list is empty




NASA's NSSDC Master Catalog

Two Line Element Set (TLE):
1 42000U 17008BE  24193.14122659  .03664044  23375-5  67438-3 0  9994
2 42000  97.1246 256.7610 0012848 257.1819 102.8042 16.32105501412648
Source of the keplerian elements: AFSPC